Wetbulb
32.23 32.48 33.23 34.81 35.31 35.10 34.69 34.13 31.00 26.94 27.34 31.00 31.03 34.85 35.55 36.32 37.97 37.85 37.33 40.85 42.18 42.38 43.47 43.12 43.49 44.05 44.49 44.57 44.97 45.80 46.45 46.61 47.16 48.32 48.96 50.15 52.79 53.90
33.86 32.83 33.36 34.28 34.20 34.39 33.78 33.55 32.52 29.72 25.96 30.89 31.78 33.18 34.43 35.87 37.34 36.53 36.47 40.14 40.73 41.68 42.28 42.30 42.59 42.89 42.95 43.23 44.07 44.68 45.09 44.85 45.55 46.72 48.31 49.54 50.46 52.02
32.00 32.67 32.87 33.57 33.19 33.10 33.23 32.74 31.46 30.86 27.71 29.76 31.67 32.99 32.90 32.78 33.73 34.58 35.66 35.56 36.39 40.49 41.39 41.50 40.81 41.28 41.89 42.55 43.10 43.17 43.32 44.18 44.84 45.77 46.98 48.31 49.26 50.60
31.22 31.63 31.68 33.89 31.89 32.46 31.76 30.83 30.59 30.78 28.74 26.96 30.31 31.04 30.98 32.32 32.73 32.66 34.45 36.39 35.76 38.76 39.67 39.73 40.18 40.53 41.37 41.26 40.78 41.59 42.26 43.45 43.81 44.52 45.26 45.79 47.23 48.37
31.07 30.95 31.07 31.34 30.75 31.00 30.47 30.00 30.40 31.58 31.19 29.81 28.24 30.84 31.24 31.89 31.33 32.62 33.73 33.29 34.18 36.65 37.55 38.18 38.95 39.01 39.35 40.03 40.69 41.40 41.88 41.97 42.54 42.98 43.82 44.86 45.84 47.70
31.26 31.18 31.18 31.19 30.51 30.41 30.64 30.72 31.79 30.57 29.78 28.59 29.25 29.26 29.35 31.08 32.45 29.81 28.22 30.17 29.40 32.61 34.47 35.67 37.08 37.82 38.74 39.65 39.76 39.82 39.79 40.02 41.28 42.20 43.18 43.93 45.17 46.12
30.25 30.91 31.83 33.21 35.48 34.58 32.52 31.36 30.60 29.21 30.05 30.14 28.17 27.71 28.99 26.80 26.19 27.90 26.49 27.19 27.97 29.70 29.63 30.70 31.64 32.18 33.25 36.14 36.32 37.70 38.56 39.94 40.95 41.89 42.61 43.03 44.82 45.23
28.88 30.18 30.82 32.67 32.80 35.36 35.19 35.40 34.41 30.77 28.95 28.00 28.76 25.18 24.90 25.59 27.14 25.74 25.30 24.77 23.72 30.76 29.06 27.97 30.58 29.50 31.13 32.50 36.82 38.14 39.77 39.94 41.83 41.71 41.71 42.04 42.55 44.05
29.15 29.29 29.62 31.42 31.66 30.03 33.07 34.94 34.54 35.25 34.41 29.87 25.60 25.07 25.29 26.66 26.58 26.15 26.98 27.32 26.51 28.42 27.95 25.27 28.81 27.76 31.15 33.40 36.00 37.32 37.70 38.50 40.04 40.22 41.16 41.87 42.47 43.01
29.46 29.33 28.94 28.92 30.25 31.59 30.95 30.39 30.60 31.14 29.40 29.55 27.85 28.11 28.98 29.82 29.59 28.86 27.56 26.71 27.18 27.64 28.77 23.51 27.67 27.48 29.00 30.75 35.17 36.11 36.44 37.38 38.21 39.10 40.11 40.46 41.29 42.71
29.77 29.76 30.04 29.65 32.86 34.28 30.75 30.40 28.19 27.66 30.80 32.24 33.09 33.48 32.85 32.54 31.62 27.96 25.29 24.13 22.28 24.11 26.97 24.82 25.14 25.62 26.74 27.37 30.31 34.79 35.93 38.39 37.66 38.39 39.09 40.37 40.77 43.25
28.88 29.64 32.36 31.37 33.26 34.36 30.59 27.88 25.27 24.63 26.77 27.87 26.51 26.73 28.47 28.10 31.13 28.02 26.39 22.70 22.29 21.31 25.23 23.70 24.09 24.74 23.11 27.90 29.62 31.28 31.22 35.23 36.14 36.43 37.86 40.23 41.78 41.28
28.20 27.47 28.52 32.12 34.02 33.46 32.60 26.97 26.25 29.19 28.01 24.38 24.04 24.81 25.36 25.51 26.05 26.61 27.11 25.45 22.85 22.30 26.52 26.89 25.55 25.57 25.27 24.86 27.66 29.97 31.40 30.33 30.91 32.02 34.92 38.52 40.05 40.80
27.31 27.39 27.97 32.84 31.71 31.32 29.52 30.58 31.12 29.83 24.31 23.41 23.39 23.29 23.24 23.71 24.63 25.63 26.62 27.16 27.84 26.77 28.42 28.52 25.93 25.97 25.17 23.88 22.74 26.92 27.40 28.31 29.08 29.83 34.03 37.50 40.17 41.39
27.89 30.05 32.56 30.87 29.82 27.66 28.70 29.47 28.96 23.59 23.61 23.24 22.75 22.53 23.64 24.64 25.35 25.50 26.60 27.50 28.20 29.23 30.58 28.14 26.77 25.50 24.22 22.97 22.57 23.58 25.73 27.59 30.25 31.78 32.22 34.94 37.27 39.27
30.26 28.99 28.30 27.86 27.92 26.93 25.37 24.95 24.29 24.47 24.39 23.35 22.53 23.40 24.16 23.86 23.72 25.31 24.58 26.82 25.61 26.83 28.97 27.71 26.96 24.35 21.83 23.60 24.99 25.75 26.92 25.21 31.93 31.87 32.04 35.84 37.72 38.68
28.94 24.74 22.66 22.17 21.52 21.98 22.65 23.42 23.81 24.11 23.44 23.13 22.44 22.07 22.41 23.04 23.10 24.74 26.07 25.41 23.65 23.78 24.69 26.52 26.25 24.74 24.45 24.37 25.73 27.57 29.36 30.18 31.70 31.68 33.01 33.05 35.09 38.01
24.72 21.05 20.44 20.54 20.76 21.33 21.34 21.88 22.73 23.48 22.81 22.49 21.99 22.01 22.01 21.95 22.57 24.88 25.52 24.53 22.99 24.01 24.46 24.83 22.63 21.89 25.03 26.83 30.78 27.57 29.55 30.04 31.62 31.95 32.69 32.63 32.72 36.42
21.25 20.58 20.56 21.01 20.88 21.22 21.57 21.75 21.18 22.25 22.61 21.81 21.96 22.50 22.39 22.78 23.67 24.27 24.05 23.80 23.32 25.72 25.26 24.20 22.09 20.58 20.06 19.17 25.95 33.78 28.29 29.76 31.89 31.57 33.10 33.21 31.62 32.73
21.37 20.92 20.67 20.72 21.04 21.39 21.71 21.49 21.43 21.49 21.36 22.29 22.19 22.34 22.98 23.16 23.48 22.83 23.71 23.50 24.99 25.94 24.56 23.95 23.14 23.01 18.73 18.68 21.37 28.70 32.87 29.96 31.28 31.31 31.74 34.20 36.04 38.57
21.34 20.70 21.08 21.23 21.76 21.97 21.85 21.44 20.96 20.86 22.48 21.36 21.94 22.49 23.02 24.47 21.87 23.07 24.14 27.08 27.55 25.78 24.13 22.55 24.35 30.47 25.59 25.70 24.99 25.63 29.71 33.35 32.81 29.75 31.53 32.02 31.48 32.37
20.66 20.74 21.42 21.84 21.85 21.58 21.07 20.80 20.64 20.83 21.02 21.39 22.04 22.90 24.82 24.13 22.39 23.67 24.64 24.49 25.15 26.36 25.19 25.04 25.78 26.22 25.66 24.79 23.96 25.21 27.12 29.37 32.24 34.64 35.35 33.27 28.45 28.88
20.89 21.42 21.40 21.56 21.45 20.97 20.84 20.64 20.74 20.66 21.10 21.78 22.10 23.50 25.54 23.95 23.81 25.18 25.60 25.82 25.82 26.10 23.93 24.05 24.38 24.07 24.64 25.82 26.20 25.95 26.35 26.49 27.37 28.70 31.72 36.27 36.45 36.76
MSLP
1014.27 1013.92 1013.62 1013.10 1012.67 1012.20 1011.84 1011.52 1010.87 1008.64 1007.14 1006.99 1006.86 1006.75 1006.40 1006.02 1005.48 1004.79 1004.22 1003.41 1002.60 1001.87 1000.92 1000.47 999.89 999.21 998.56 998.09 997.59 997.05 996.50 996.14 995.73 995.24 994.57 993.82 993.08 992.72
1014.06 1013.77 1013.26 1012.70 1012.20 1011.78 1011.38 1011.06 1010.81 1010.22 1007.92 1007.14 1006.41 1006.07 1005.72 1005.15 1004.78 1004.40 1003.54 1002.70 1001.73 1001.01 1000.26 999.49 998.87 998.22 997.68 997.06 996.38 995.89 995.45 995.16 994.81 994.30 993.55 992.79 992.16 991.58
1014.05 1013.60 1013.02 1012.50 1011.89 1011.41 1011.02 1010.63 1010.30 1009.99 1008.97 1006.62 1006.23 1005.51 1004.82 1004.28 1003.60 1003.22 1002.53 1001.75 1000.90 1000.07 999.42 998.67 998.13 997.30 996.43 995.72 995.13 994.69 994.32 993.85 993.43 992.96 992.32 991.87 991.33 990.93
1014.05 1013.55 1012.84 1012.14 1011.63 1011.07 1010.60 1010.15 1009.74 1009.34 1008.75 1007.33 1005.86 1005.18 1004.64 1003.75 1002.64 1001.74 1001.15 1000.53 1000.02 999.32 998.70 997.89 996.81 996.24 995.36 994.81 994.40 993.73 993.19 992.61 992.12 991.67 991.22 990.95 990.52 990.04
1014.01 1013.43 1012.70 1012.03 1011.24 1010.64 1010.11 1009.56 1008.96 1008.34 1007.88 1007.18 1005.63 1004.75 1003.70 1002.92 1001.70 1000.78 1000.34 999.70 999.22 998.48 997.91 996.95 996.16 995.45 994.62 993.82 993.06 992.42 991.81 991.38 990.95 990.64 990.31 989.94 989.54 989.03
1013.84 1013.25 1012.49 1011.70 1010.86 1010.17 1009.46 1008.74 1008.11 1007.64 1007.01 1006.23 1005.12 1004.11 1003.21 1002.16 1001.79 1000.73 999.18 998.96 998.10 997.57 996.85 996.12 995.38 994.42 993.61 992.80 992.11 991.52 990.98 990.55 990.00 989.50 989.07 988.58 988.31 987.86
1013.51 1012.84 1011.92 1011.20 1010.36 1009.59 1008.66 1008.08 1007.59 1006.85 1006.21 1005.22 1004.42 1003.32 1002.19 1001.46 1000.93 999.93 998.92 997.69 996.87 996.86 995.66 994.63 994.28 993.58 992.74 992.16 991.49 990.64 989.94 989.24 988.60 988.10 987.73 987.65 987.27 986.85
1012.86 1012.02 1011.38 1010.69 1009.87 1009.12 1008.60 1007.84 1006.91 1006.16 1005.53 1004.81 1003.61 1002.93 1001.66 1001.00 1000.14 999.35 998.29 997.17 994.91 995.80 994.69 993.19 993.61 992.08 991.59 990.92 990.16 989.24 988.47 987.79 987.50 987.01 986.69 986.29 986.35 985.80
1012.33 1011.60 1010.73 1010.02 1009.46 1008.74 1007.78 1006.86 1006.58 1005.85 1005.07 1004.23 1003.15 1002.30 1001.03 1000.38 999.39 998.10 997.18 996.28 995.05 994.50 994.32 991.91 992.16 990.89 990.31 989.46 988.85 988.00 987.56 986.83 986.26 985.81 985.63 985.37 985.20 985.03
1011.77 1011.17 1010.39 1009.54 1008.83 1007.80 1006.78 1006.13 1005.48 1004.84 1004.15 1003.37 1002.51 1001.31 1000.40 999.31 998.48 997.38 996.33 995.33 994.49 993.81 993.39 991.21 990.81 989.91 989.32 988.53 987.72 986.88 986.30 985.66 985.02 984.57 984.22 983.95 983.92 983.82
1011.09 1010.60 1010.07 1009.07 1008.10 1006.92 1005.96 1005.16 1004.42 1003.73 1003.15 1002.29 1001.48 1000.33 999.42 998.65 997.71 996.59 995.73 994.82 993.28 992.67 992.20 991.18 990.00 988.82 988.38 987.53 986.55 985.42 985.06 984.79 984.41 983.91 983.47 982.84 982.75 982.44
1010.51 1010.10 1009.45 1008.45 1007.21 1006.31 1005.38 1004.53 1003.71 1002.88 1002.11 1001.19 1000.40 999.79 998.99 998.08 997.15 996.46 995.53 994.36 993.09 991.68 990.70 990.40 989.21 988.51 986.86 986.04 985.25 984.80 984.31 983.52 983.08 982.47 981.89 981.52 981.42 981.05
1010.28 1009.32 1008.59 1007.70 1006.70 1005.73 1004.74 1004.25 1003.41 1002.15 1001.51 1000.93 1000.04 999.15 998.24 997.38 996.53 995.70 994.95 993.90 992.46 991.09 989.61 989.27 988.18 987.45 986.86 985.48 984.52 983.99 983.51 982.71 982.09 981.53 981.03 980.37 980.09 980.03
1009.78 1008.85 1007.94 1006.89 1005.98 1005.17 1004.61 1003.98 1002.82 1001.99 1001.53 1000.62 999.71 998.62 997.73 996.81 995.86 994.89 993.79 992.66 991.62 990.47 989.10 988.49 987.36 986.71 985.97 985.15 984.20 982.97 982.48 981.87 981.32 980.52 979.70 978.99 978.80 978.82
1009.46 1008.35 1007.41 1006.51 1005.92 1005.34 1004.60 1003.64 1002.82 1002.19 1001.34 1000.27 999.34 998.39 997.53 996.45 995.30 994.10 992.79 991.65 990.36 989.28 988.39 987.87 987.45 986.70 986.03 985.23 984.15 982.80 982.00 980.87 980.33 979.31 978.41 977.41 977.35 977.75
1008.68 1007.92 1007.16 1006.62 1005.98 1005.28 1004.33 1003.49 1002.73 1002.02 1001.10 1000.12 999.16 998.08 996.99 995.83 994.71 993.63 992.39 991.04 990.00 988.60 987.86 987.27 986.77 986.38 985.70 984.78 983.74 982.27 981.50 981.00 979.64 978.79 977.98 976.86 976.83 977.17
1007.95 1007.68 1007.21 1006.49 1005.70 1004.87 1003.99 1003.15 1002.34 1001.55 1000.68 999.88 998.81 997.63 996.47 995.35 994.21 993.07 991.92 990.86 989.96 988.72 987.51 986.65 986.20 985.73 985.15 984.72 983.48 982.37 981.39 980.67 979.98 979.15 978.28 977.46 977.85 977.92
1008.19 1007.94 1007.24 1006.57 1005.72 1004.72 1003.81 1002.89 1002.09 1001.22 1000.40 999.52 998.45 997.38 996.19 995.06 993.82 992.54 991.75 990.88 989.86 988.71 987.91 987.19 986.47 985.48 984.83 984.43 983.87 982.79 981.88 981.26 980.64 979.91 979.44 978.50 979.34 979.63
1008.61 1007.99 1007.31 1006.51 1005.61 1004.75 1003.88 1002.95 1001.93 1001.07 1000.21 999.24 998.14 996.98 995.91 994.78 993.67 992.50 991.63 990.82 989.76 988.81 988.27 987.80 987.16 986.64 985.89 985.29 984.44 983.48 982.86 982.24 981.60 981.08 980.89 980.74 981.01 981.67
1008.58 1007.92 1007.21 1006.42 1005.55 1004.64 1003.69 1002.77 1001.81 1000.80 999.90 998.82 997.80 996.74 995.69 994.69 993.60 992.69 991.74 990.83 989.78 989.03 988.46 988.02 987.49 987.03 986.95 986.58 985.82 984.87 983.89 983.34 982.96 982.80 982.63 982.56 982.90 983.22
1008.47 1007.81 1007.10 1006.23 1005.34 1004.43 1003.52 1002.61 1001.74 1000.69 999.61 998.64 997.54 996.52 995.47 994.54 993.73 992.85 991.90 990.90 990.00 989.40 988.96 988.55 988.08 987.29 987.01 986.47 986.23 985.85 985.50 985.01 984.65 984.55 984.52 984.15 984.50 984.88
1008.47 1007.72 1006.85 1006.01 1005.13 1004.24 1003.31 1002.38 1001.35 1000.30 999.30 998.29 997.30 996.29 995.24 994.55 993.80 992.85 991.96 991.15 990.38 989.84 989.57 989.14 988.55 988.17 987.70 987.36 987.28 987.09 986.86 986.64 986.34 986.14 985.96 985.90 986.08 986.44
1008.29 1007.47 1006.58 1005.72 1004.87 1003.97 1003.04 1002.08 1001.10 1000.08 999.10 998.03 996.99 995.88 994.93 994.29 993.62 992.79 992.01 991.28 990.66 990.15 989.93 989.66 989.35 988.94 988.77 988.48 988.24 988.19 988.08 988.08 987.91 987.70 987.80 987.76 987.80 988.17
Wind_Speed
6 6 6 7 7 6 7 8 10 18 17 14 13 13 9 11 14 15 15 25 33 37 33 35 36 33 34 35 35 35 35 33 34 35 33 36 30 33
7 9 10 8 8 8 6 7 7 11 19 15 13 16 15 12 14 18 17 29 31 32 33 32 33 34 36 37 35 35 33 34 36 36 35 34 34 34
9 12 13 12 9 8 9 8 9 9 13 17 15 16 19 19 17 14 14 14 14 29 32 32 36 39 36 35 34 35 36 35 34 33 35 33 32 31
13 14 15 11 14 12 7 12 9 10 12 19 17 15 18 18 19 19 14 12 14 21 30 36 35 35 34 33 36 37 36 35 33 32 30 32 34 32
13 15 16 15 14 10 10 10 12 11 11 12 16 14 15 15 18 17 13 12 13 23 29 32 33 33 35 34 34 34 33 32 32 31 32 31 32 31
13 15 15 15 13 14 13 14 12 12 12 13 14 13 15 15 12 13 15 12 14 12 20 26 29 31 32 33 32 32 33 34 33 32 31 29 29 29
14 15 14 19 27 25 14 14 16 15 13 11 14 16 11 15 15 14 15 16 15 12 14 13 11 12 15 23 27 31 31 30 30 29 30 28 28 25
14 14 14 21 18 27 28 33 27 18 18 15 13 16 18 16 13 14 15 16 19 8 12 15 11 15 13 12 24 32 29 31 28 28 28 28 28 27
13 14 14 12 19 17 24 28 22 27 28 20 20 18 20 17 18 20 18 15 15 12 15 18 11 14 12 12 27 30 31 34 29 28 28 26 26 27
12 14 15 16 17 23 20 17 16 14 16 13 17 18 18 19 19 17 19 19 15 12 12 19 10 12 13 12 27 30 32 31 31 29 27 29 27 26
12 12 15 19 25 33 21 18 19 15 17 27 29 32 32 33 29 16 13 14 15 13 11 14 13 14 12 13 14 29 27 19 23 22 25 23 25 27
12 13 22 23 33 33 21 19 16 17 17 17 14 19 21 19 28 16 13 14 15 15 13 12 13 12 11 10 9 8 10 17 22 26 25 23 23 11
11 12 11 29 32 33 32 14 19 23 19 14 14 13 13 13 12 12 13 12 14 15 17 13 10 11 9 10 7 8 7 10 9 13 23 25 24 20
14 13 15 30 33 30 23 30 31 26 13 13 13 12 13 12 13 14 17 15 13 16 17 15 9 10 8 8 9 5 8 9 10 10 10 16 24 24
13 22 30 29 28 20 26 29 26 12 11 12 12 13 12 13 14 14 15 16 15 13 8 6 7 9 5 7 9 9 9 4 8 8 6 7 9 7
19 12 18 23 22 21 17 15 11 11 12 12 12 12 11 10 12 11 11 10 11 9 9 6 7 6 5 7 9 10 7 4 6 4 4 4 8 5
22 10 11 11 12 12 12 12 12 11 11 11 12 12 12 11 12 11 9 10 10 10 9 8 9 7 7 8 7 7 5 3 5 5 5 11 10 8
12 11 11 11 12 13 13 13 12 15 11 12 11 11 12 12 12 12 9 9 10 10 8 8 9 6 2 3 8 7 5 4 6 7 7 13 12 11
10 11 11 11 12 12 12 12 12 12 14 11 11 12 12 11 16 10 10 9 10 7 7 6 7 6 7 6 5 20 5 5 7 10 9 10 11 10
10 11 11 12 12 12 12 12 12 12 11 11 12 11 11 10 10 10 10 9 9 6 6 5 6 5 3 4 4 8 22 7 8 10 11 12 14 26
10 11 11 12 11 12 12 11 12 12 14 12 11 11 11 8 10 10 10 17 15 5 6 7 7 12 4 2 5 9 10 26 20 9 6 11 11 12
11 11 11 11 12 12 11 11 11 12 12 11 11 11 9 8 9 10 9 9 9 5 4 4 6 5 6 6 7 8 9 10 16 24 24 15 3 8
11 11 12 12 11 11 11 11 11 12 12 12 11 11 9 9 9 8 8 8 7 4 3 4 4 3 6 6 9 8 14 12 8 10 12 26 26 28
Wind_Direction
290 295 292 295 290 285 298 291 301 306 304 306 304 301 306 295 296 297 303 298 299 296 296 302 290 294 294 295 290 290 289 289 289 287 287 284 284 279
313 309 300 299 298 295 288 297 297 298 299 304 305 307 306 300 301 298 289 289 290 294 293 296 299 300 297 292 290 287 285 288 285 282 280 278 275 276
321 310 308 307 300 307 299 297 297 290 291 299 299 302 306 302 297 288 283 281 282 288 293 295 300 290 287 285 286 289 284 281 281 280 278 279 278 277
320 313 308 311 305 301 297 297 292 292 287 291 298 300 295 298 294 293 289 283 287 286 296 293 295 298 295 300 295 290 289 285 284 280 279 275 274 270
314 310 308 306 301 300 295 295 291 290 290 286 291 292 293 294 295 292 299 292 285 293 295 293 294 299 289 287 285 285 283 284 285 281 280 270 269 270
309 306 302 296 300 303 297 293 298 296 291 287 283 293 295 303 298 300 298 296 294 292 289 288 288 289 293 293 296 294 293 288 283 281 276 266 263 270
307 301 297 304 309 305 306 312 307 302 297 298 296 294 299 305 304 299 295 297 291 291 287 282 286 287 281 285 284 282 282 279 279 276 276 273 273 277
302 305 304 308 304 317 314 306 302 309 308 299 300 304 302 300 301 294 294 294 295 278 292 289 285 283 280 275 277 283 282 292 285 279 274 275 265 266
301 307 306 307 315 305 300 304 306 295 304 307 298 297 297 296 296 293 288 287 292 304 295 286 284 280 280 274 288 286 293 289 281 286 281 269 263 264
298 300 302 310 306 307 307 305 303 295 296 295 294 297 292 296 295 300 299 296 287 288 284 283 293 282 287 282 287 285 285 282 281 282 281 267 263 261
304 306 310 306 308 310 317 308 307 307 295 304 301 301 309 308 306 303 297 298 295 296 285 281 289 284 285 283 276 276 287 291 295 291 283 275 259 266
313 311 307 313 312 318 314 314 314 309 310 306 313 308 305 299 303 300 298 293 292 292 285 283 283 287 285 267 269 280 278 287 288 287 278 273 269 260
316 313 309 311 316 319 322 329 311 317 321 318 307 304 304 304 302 298 291 285 286 284 284 289 285 281 269 289 266 277 264 278 276 276 278 267 258 251
316 311 305 316 324 327 332 318 323 327 314 307 306 307 310 308 305 301 298 292 284 282 287 288 279 282 288 299 294 278 279 275 269 263 261 253 247 239
314 306 319 324 329 327 318 324 324 315 309 306 312 309 307 303 301 302 302 301 292 278 272 290 321 326 285 282 285 291 298 282 283 270 270 255 194 193
313 316 326 328 322 319 319 316 314 313 312 311 306 305 305 307 308 308 306 316 316 313 305 276 297 285 290 274 288 284 283 281 315 316 312 53 67 81
331 333 325 322 320 320 317 318 318 315 315 312 311 310 310 311 309 308 305 311 312 312 320 325 327 292 258 273 314 328 324 328 351 343 22 65 48 52
338 325 320 319 319 320 320 318 317 319 316 314 310 309 310 312 310 315 316 318 315 315 326 339 338 338 323 302 326 342 346 6 15 22 47 73 66 54
325 319 318 320 319 317 315 315 316 317 316 312 309 312 310 310 319 317 322 322 319 325 337 345 346 3 9 9 328 16 9 11 54 52 53 64 78 66
319 320 320 318 315 313 314 316 316 316 316 313 316 313 315 314 323 322 324 321 326 336 335 348 343 353 356 335 326 30 32 33 50 62 67 73 79 83
324 321 317 314 312 312 313 314 314 314 316 315 313 314 316 320 321 320 322 334 343 343 359 357 349 33 328 287 50 39 39 45 49 43 50 78 80 81
319 315 315 314 311 312 312 312 312 313 314 314 314 314 312 323 316 317 323 326 333 342 359 336 358 20 30 46 53 47 45 40 40 49 58 61 78 94
315 314 313 311 311 309 309 312 311 310 309 310 311 313 314 319 318 313 317 320 327 347 354 358 17 16 31 35 63 60 60 53 50 56 63 67 74 87